Location: Emblem
(62.4273°N, 6.4710°E)
Time: 00:41:30
(UTC+02:00)

UWE-3 - Pass Details

Date: 22 March 2023
Orbit: 577 x 669 km, 97.7° (Epoch: 06 June)

Event Time Altitude Azimuth Distance (km) Brightness Sun altitude
Rises 04:08:06 0° 17° (NNE) 3,041 ? -16.2°
Reaches altitude 10° 04:10:21 10° 17° (NNE) 2,120 ? -16.0°
Maximum altitude 04:15:01 87° 293° (WNW) 678 ? -15.5°
Enters shadow 04:18:18 19° 201° (SSW) 1,566 ? -15.2°
